RH
2845 2913 2998 3078 3152 3210 3232 3224 3205 3240 3254 3295 3359 3435 3521 3588 3625 3623 3629 3593 3562 3532 3493 3444 3412 3382 3370 3384 3398 3418 3424 3424 3392 3418 3470 3574 3722 3911 4113 4343 4555 4728 4826 4846 4770 4701 4676 4682 4720 4694 4734 4854 5163 5349 5413 5381 5400 5433 5491 5509 5469 5405 5335 5288 5210 5173 5195 5240 5268
2967 3055 3143 3212 3256 3289 3309 3326 3315 3333 3376 3410 3465 3530 3628 3723 3768 3783 3795 3773 3720 3677 3646 3607 3579 3552 3534 3515 3529 3515 3504 3454 3425 3421 3484 3591 3770 3972 4196 4437 4646 4805 4921 4959 4945 4896 4885 4883 4868 4824 4837 5063 5398 5545 5559 5499 5493 5498 5515 5521 5470 5438 5435 5437 5437 5426 5425 5437 5437
3120 3185 3276 3348 3375 3387 3393 3405 3412 3452 3506 3560 3629 3710 3793 3870 3918 3927 3930 3903 3851 3794 3751 3688 3674 3646 3635 3646 3621 3599 3550 3490 3444 3454 3513 3623 3826 4076 4326 4584 4777 4915 5023 5084 5123 5150 5141 5132 5057 4986 5006 5234 5578 5790 5810 5695 5639 5629 5618 5599 5572 5573 5613 5690 5726 5743 5767 5764 5750
3238 3298 3358 3416 3436 3437 3436 3452 3490 3538 3618 3703 3799 3903 4013 4091 4137 4152 4142 4102 4070 4032 3973 3904 3836 3788 3759 3735 3715 3660 3616 3555 3518 3522 3573 3707 3938 4225 4492 4757 4936 5043 5123 5204 5305 5385 5421 5396 5300 5234 5287 5526 5873 6107 6159 5978 5837 5755 5737 5753 5800 5867 5962 6055 6154 6240 6294 6348 6320
3283 3349 3399 3441 3479 3498 3539 3575 3613 3707 3823 3973 4099 4221 4317 4402 4420 4438 4441 4424 4413 4349 4275 4195 4126 4080 4028 3990 3939 3891 3845 3809 3796 3839 3896 4005 4218 4465 4718 4937 5058 5134 5198 5284 5450 5600 5707 5730 5646 5655 5758 5964 6293 6526 6563 6312 6046 5901 5876 5973 6138 6315 6475 6641 6774 6911 7018 7108 7119
3326 3365 3443 3481 3545 3600 3664 3742 3840 3948 4107 4273 4384 4457 4528 4593 4624 4619 4613 4580 4556 4526 4508 4532 4543 4516 4476 4424 4390 4350 4336 4317 4312 4327 4388 4480 4657 4856 5052 5173 5230 5267 5302 5357 5560 5763 5969 6121 6166 6260 6384 6505 6652 6865 6918 6643 6267 6079 6093 6352 6660 6904 7114 7310 7451 7570 7674 7765 7766
3374 3463 3540 3589 3624 3688 3765 3835 3966 4111 4259 4383 4420 4466 4512 4582 4639 4673 4707 4699 4691 4696 4696 4701 4740 4777 4819 4833 4812 4755 4698 4624 4516 4441 4457 4557 4795 5077 5353 5540 5579 5552 5518 5524 5669 5856 6077 6318 6662 6952 7121 7091 7134 7182 7141 6846 6433 6270 6398 6860 7203 7426 7583 7719 7818 7932 8045 8123 8126
3529 3595 3676 3709 3727 3748 3785 3843 3965 4098 4205 4267 4274 4320 4416 4530 4643 4748 4827 4866 4777 4677 4573 4507 4524 4629 4777 5002 5112 5081 5018 4926 4797 4712 4670 4681 4806 5054 5408 5776 5905 5884 5829 5761 5829 5960 6152 6353 6813 7215 7482 7516 7466 7405 7253 6926 6463 6416 6729 7386 7613 7698 7733 7799 7910 8063 8205 8321 8291
3709 3758 3798 3819 3795 3776 3779 3779 3852 3926 3979 4010 4051 4159 4289 4452 4585 4717 4799 4826 4692 4516 4371 4232 4204 4281 4477 4774 5107 5232 5237 5207 5224 5221 5198 5098 4923 5049 5374 5861 6028 6082 6044 6002 6091 6180 6284 6366 6588 6921 7254 7460 7431 7363 7153 6716 6221 6424 7049 7827 7817 7729 7679 7680 7806 8002 8210 8365 8134
3802 3853 3890 3913 3852 3815 3770 3745 3735 3727 3749 3752 3828 3941 4119 4268 4392 4505 4575 4597 4514 4377 4221 4068 3989 3961 3979 4036 4249 4548 4908 5202 5352 5478 5494 5340 4961 4865 5101 5568 5901 6077 6160 6176 6300 6372 6427 6446 6420 6467 6588 6813 6971 6895 6621 6137 5767 6241 7147 8035 7899 7735 7619 7616 7735 7939 8090 8051 7651
3861 3926 3977 3976 3909 3846 3806 3732 3668 3600 3568 3557 3613 3714 3844 3979 4103 4182 4261 4291 4217 4087 3984 3936 3911 3846 3770 3697 3734 3810 3978 4166 4542 4899 5149 5107 4899 4815 4888 5169 5561 5841 6056 6244 6363 6451 6507 6542 6486 6410 6335 6272 6234 6117 5912 5556 5444 5981 6887 7889 7805 7671 7518 7462 7572 7662 7645 7500 7135
3918 4022 4048 4038 3963 3887 3795 3720 3623 3559 3502 3453 3460 3499 3564 3652 3759 3846 3883 3871 3734 3660 3629 3677 3676 3668 3651 3663 3736 3865 3993 4139 4268 4424 4591 4721 4797 4896 5028 5252 5492 5779 6104 6379 6458 6535 6601 6635 6656 6625 6522 6352 6109 5880 5684 5473 5471 5832 6345 6910 6901 6843 6825 6947 7076 7094 7067 6982 6798
4011 4101 4126 4099 3996 3890 3813 3733 3698 3623 3551 3471 3382 3344 3329 3368 3438 3491 3488 3399 3305 3297 3343 3434 3472 3507 3563 3623 3752 3948 4121 4310 4499 4658 4784 4838 4829 4869 5015 5347 5768 6174 6438 6537 6524 6555 6620 6685 6807 6795 6670 6468 6217 5993 5825 5690 5759 5963 6205 6366 6214 6193 6292 6573 6729 6807 6812 6790 6740
4121 4161 4163 4099 3996 3904 3854 3831 3839 3799 3730 3624 3477 3357 3262 3204 3206 3202 3151 3095 3118 3164 3291 3412 3537 3641 3737 3818 3923 4059 4237 4421 4583 4714 4793 4830 4779 4790 4925 5312 5947 6394 6638 6623 6537 6516 6561 6594 6662 6666 6582 6409 6224 6036 5915 5838 5990 6223 6431 6499 6346 6329 6438 6689 6857 6917 6909 6873 6806
4195 4191 4143 4077 3999 3935 3902 3913 3964 3986 3963 3919 3776 3621 3471 3314 3200 3104 3061 3045 3130 3259 3418 3607 3760 3884 3976 4064 4160 4265 4415 4560 4682 4762 4782 4763 4721 4757 4941 5377 6019 6451 6678 6696 6655 6616 6599 6580 6566 6516 6447 6284 6096 5939 5868 5879 6093 6389 6641 6749 6665 6713 6854 7082 7143 7085 6996 6922 6841
4208 4165 4120 4076 4013 3949 3923 3945 4002 4077 4148 4195 4160 4042 3901 3690 3466 3284 3149 3104 3212 3373 3554 3771 3920 4037 4116 4199 4292 4414 4537 4673 4764 4834 4862 4852 4835 4915 5112 5482 5945 6302 6541 6713 6784 6773 6713 6652 6562 6454 6320 6149 5980 5845 5812 5897 6190 6526 6776 6856 6796 6898 7093 7296 7241 7118 6985 6880 6827
4165 4147 4110 4067 4007 3958 3935 3935 3994 4090 4199 4335 4405 4398 4304 4116 3843 3574 3380 3250 3323 3466 3671 3882 4049 4163 4271 4354 4456 4562 4701 4831 4968 5047 5127 5154 5210 5335 5537 5801 6107 6373 6596 6802 6896 6889 6818 6670 6529 6373 6219 6046 5908 5822 5835 5984 6335 6678 6912 6937 6835 6945 7148 7349 7252 7101 6941 6845 6813
4121 4120 4111 4079 4003 3946 3918 3927 3980 4076 4198 4345 4483 4551 4539 4437 4218 3976 3799 3661 3659 3792 3954 4141 4320 4462 4601 4715 4841 4983 5134 5296 5445 5564 5653 5695 5795 5923 6090 6291 6562 6764 6894 7023 7021 6948 6827 6667 6494 6315 6153 6018 5946 5921 5987 6177 6523 6907 7159 7159 6945 6967 7126 7302 7225 7065 6916 6825 6840
4071 4127 4132 4087 4005 3952 3930 3936 3979 4072 4221 4382 4538 4631 4662 4585 4463 4362 4320 4313 4381 4505 4653 4806 4970 5107 5274 5413 5576 5690 5822 5946 6081 6162 6231 6253 6339 6430 6560 6710 6899 7010 7060 7082 7038 6942 6818 6648 6460 6290 6159 6087 6070 6122 6243 6413 6715 7055 7269 7217 7009 7036 7154 7274 7134 6996 6886 6855 6950
4059 4115 4142 4105 4047 3991 3962 3968 4044 4146 4290 4493 4640 4719 4752 4726 4718 4754 4823 4946 5097 5284 5415 5543 5673 5814 5979 6138 6260 6347 6404 6430 6518 6527 6515 6477 6526 6625 6731 6836 6974 7026 7035 7052 7005 6904 6774 6615 6448 6302 6195 6148 6185 6265 6440 6638 6846 6992 7047 6970 6998 7107 7198 7192 7027 6933 6907 6970 7056
3951 4002 4030 4052 4041 4027 4027 4051 4149 4275 4446 4668 4826 4944 5015 5088 5159 5233 5323 5463 5641 5804 5935 6065 6215 6343 6460 6587 6678 6691 6706 6665 6683 6678 6645 6573 6582 6596 6625 6684 6857 7005 7082 7047 6976 6857 6720 6563 6426 6308 6225 6197 6260 6369 6528 6693 6819 6893 6940 6946 7061 7146 7176 7090 6941 6924 6959 7087 7138
3947 4001 4043 4082 4126 4198 4284 4434 4636 4859 5079 5311 5480 5611 5704 5762 5705 5650 5704 5863 6095 6277 6456 6602 6745 6848 6890 6941 6934 6907 6855 6784 6770 6763 6758 6742 6683 6617 6584 6621 6839 7027 7134 7080 6967 6841 6690 6495 6379 6291 6261 6241 6380 6471 6545 6608 6734 6852 6935 6979 7074 7121 7099 6974 6919 6932 7027 7146 7178
4827 4809 4780 4804 4871 4976 5127 5295 5463 5621 5773 5958 6126 6266 6313 6272 6133 6032 6074 6289 6557 6763 6941 7065 7170 7228 7242 7218 7166 7089 7026 6956 6934 6882 6829 6779 6757 6729 6697 6785 6960 7097 7159 7096 6973 6816 6646 6479 6355 6275 6230 6235 6334 6380 6435 6537 6696 6798 6882 6943 7016 7046 6996 6924 6921 6999 7116 7214 7226
5513 5428 5338 5257 5151 5015 4934 5001 5597 6240 6785 7076 7088 7027 6938 6788 6651 6583 6618 6761 6999 7146 7234 7303 7416 7460 7422 7323 7254 7194 7161 7139 7095 7012 6931 6834 6804 6807 6832 6910 7054 7123 7126 7096 6945 6780 6599 6443 6330 6266 6203 6205 6249 6301 6384 6515 6616 6690 6753 6857 6939 6949 6949 6921 6999 7091 7187 7290 7288
4746 4662 4568 4452 4301 4180 4432 5317 6827 7693 8035 7990 7872 7640 7345 7074 7054 7069 7151 7262 7377 7407 7410 7395 7512 7532 7469 7356 7310 7283 7272 7266 7235 7170 7071 6944 6875 6845 6866 6944 7054 7099 7096 7047 6899 6734 6561 6399 6291 6259 6234 6245 6263 6312 6411 6520 6588 6671 6759 6865 6925 6932 6943 6983 7075 7192 7279 7335 7330
4121 4162 4170 4187 4180 4275 4832 6206 7699 8322 8379 8168 7765 7388 7143 7145 7315 7440 7513 7577 7630 7593 7512 7395 7513 7521 7467 7374 7335 7319 7341 7374 7288 7201 7127 7030 6959 6906 6917 6985 7085 7118 7099 7023 6874 6690 6506 6341 6245 6184 6180 6196 6265 6352 6465 6560 6665 6742 6830 6906 6924 6954 7005 7080 7181 7243 7290 7305 7281
4180 4247 4404 4673 5064 5427 5942 6788 7907 8385 8309 7744 7249 7085 7176 7417 7554 7624 7642 7679 7688 7641 7552 7462 7478 7484 7472 7412 7387 7384 7416 7449 7398 7319 7209 7088 6976 6932 6978 7060 7093 7088 7030 6935 6764 6588 6412 6246 6138 6049 6039 6079 6206 6363 6512 6642 6736 6821 6895 6927 6954 6988 7059 7131 7179 7196 7199 7167 7119
4662 4909 5335 5961 6673 7039 7210 7318 7690 7808 7673 7336 7180 7214 7347 7508 7526 7556 7595 7655 7630 7641 7656 7658 7564 7517 7509 7560 7549 7543 7555 7552 7499 7403 7283 7116 7099 7110 7124 7068 7076 7004 6866 6680 6487 6297 6140 6019 5969 5985 6045 6170 6335 6482 6617 6722 6793 6862 6908 6926 6969 7003 7070 7093 7082 7055 7018 6989 6922
5580 5950 6534 7388 7770 7786 7610 7434 7339 7245 7210 7277 7291 7290 7284 7333 7389 7503 7614 7708 7719 7741 7752 7699 7657 7598 7576 7673 7685 7718 7699 7631 7530 7394 7260 7163 7207 7176 7130 7058 6967 6817 6617 6371 6175 6035 5940 5897 5928 6051 6187 6350 6515 6626 6702 6782 6823 6858 6898 6910 6955 6998 6996 6971 6906 6869 6835 6812 6766
6738 7021 7477 8270 8124 7862 7537 7171 7009 6971 6993 7035 7115 7136 7134 7196 7335 7515 7718 7882 7971 7977 7920 7838 7750 7673 7663 7821 7774 7650 7523 7454 7408 7327 7262 7287 7415 7426 7335 7153 6960 6759 6549 6334 6191 6104 6054 6030 6091 6201 6334 6488 6595 6670 6724 6776 6822 6873 6899 6930 6945 6918 6874 6818 6764 6758 6732 6709 6674
7318 7640 8087 8368 8054 7613 7140 6756 6705 6759 6871 6993 7088 7156 7214 7311 7506 7712 7931 8140 8213 8191 8120 8037 7862 7826 7832 7852 7649 7525 7481 7477 7367 7332 7363 7457 7465 7379 7212 6963 6746 6589 6446 6281 6202 6157 6137 6156 6219 6345 6466 6579 6631 6652 6690 6759 6823 6868 6899 6925 6893 6847 6798 6764 6744 6727 6701 6653 6623
7021 7240 7571 7660 7338 6966 6662 6463 6525 6735 7017 7234 7349 7467 7563 7694 7860 8058 8239 8338 8263 8172 8112 8070 7875 7860 7838 7642 7445 7404 7443 7458 7402 7428 7467 7449 7391 7225 6993 6734 6572 6443 6300 6166 6149 6136 6161 6213 6339 6443 6540 6590 6603 6641 6703 6768 6846 6877 6892 6893 6863 6837 6798 6772 6708 6660 6577 6530 6545
6773 6682 6667 6732 6529 6400 6335 6339 6630 6982 7289 7479 7641 7805 7938 8099 8225 8315 8366 8349 8198 8123 8063 8005 7844 7775 7711 7518 7495 7499 7487 7388 7405 7410 7374 7326 7226 7067 6873 6642 6466 6323 6187 6055 6098 6153 6202 6290 6389 6477 6538 6570 6577 6628 6712 6782 6833 6848 6846 6852 6813 6771 6704 6626 6545 6476 6429 6441 6520
6602 6379 6249 6215 6145 6149 6230 6379 6782 7140 7443 7676 7909 8136 8334 8454 8486 8462 8383 8244 8096 7962 7866 7846 7709 7557 7487 7614 7558 7521 7499 7476 7430 7341 7254 7209 7098 6937 6735 6513 6285 6132 6032 5973 6000 6080 6176 6284 6390 6476 6527 6557 6609 6668 6751 6791 6783 6778 6749 6768 6704 6618 6534 6434 6365 6340 6391 6490 6593
6305 6202 6212 6226 6215 6227 6347 6566 6957 7344 7702 7921 8231 8455 8570 8557 8479 8375 8239 8060 7882 7707 7605 7540 7443 7459 7591 7779 7615 7549 7541 7540 7384 7295 7232 7157 6945 6697 6452 6223 6051 5916 5831 5784 5818 5971 6145 6335 6430 6490 6543 6570 6648 6698 6731 6734 6693 6660 6639 6639 6590 6479 6371 6282 6284 6368 6516 6681 6833
6296 6385 6529 6611 6467 6431 6504 6788 7236 7609 7834 7907 8228 8274 8143 7902 7770 7665 7596 7559 7469 7393 7318 7273 7332 7481 7641 7755 7673 7621 7573 7425 7313 7230 7103 6859 6551 6230 5958 5756 5611 5495 5459 5488 5668 5929 6197 6351 6421 6471 6504 6571 6621 6626 6604 6559 6517 6499 6479 6473 6415 6327 6279 6295 6391 6562 6765 6962 7097
6610 6727 6868 6951 6755 6656 6712 7005 7306 7472 7505 7466 7445 7227 6941 6779 6707 6644 6646 6770 6898 7016 7129 7301 7450 7556 7610 7603 7631 7528 7345 7164 7024 6871 6643 6299 5967 5689 5476 5303 5148 5100 5184 5373 5728 6027 6256 6340 6384 6429 6496 6544 6527 6476 6414 6372 6354 6353 6359 6359 6346 6345 6358 6441 6579 6770 6970 7134 7238
6773 6770 6877 7144 6991 6852 6792 6879 6873 6802 6712 6618 6445 6312 6201 6088 6049 6080 6175 6272 6474 6745 7041 7348 7530 7635 7641 7544 7352 7178 7020 6793 6637 6384 6064 5670 5376 5199 5077 5005 4946 5030 5208 5524 5897 6140 6258 6318 6383 6413 6435 6447 6374 6303 6261 6276 6290 6306 6320 6354 6389 6413 6463 6552 6705 6893 7049 7187 7229
6840 6790 6901 7105 7055 6929 6774 6574 6277 6075 5974 6034 5913 5882 5904 5858 5905 5989 6072 6116 6219 6464 6824 7205 7334 7368 7324 7187 6985 6784 6590 6365 6051 5746 5459 5179 4977 4875 4853 4905 4987 5142 5370 5659 5907 6064 6150 6215 6239 6241 6194 6149 6141 6147 6188 6226 6265 6299 6341 6404 6451 6484 6546 6620 6748 6887 7005 7087 7109
6843 6791 6806 6808 6825 6838 6791 6659 6577 6556 6584 6607 6360 6158 6015 5974 5981 5948 5920 5916 6084 6358 6688 7024 7098 7061 6922 6740 6574 6366 6109 5808 5504 5260 5040 4891 4804 4804 4856 4978 5127 5259 5422 5574 5699 5779 5845 5887 5912 5918 5911 5943 5986 6071 6141 6211 6276 6349 6404 6459 6504 6583 6651 6714 6746 6787 6851 6898 6854
6790 6661 6560 6440 6471 6618 6835 7105 7217 7302 7320 7291 6723 6295 6037 5963 5851 5760 5729 5851 6146 6421 6665 6784 6713 6529 6351 6198 6055 5888 5691 5458 5215 5012 4880 4804 4795 4852 4946 5064 5201 5276 5323 5352 5415 5477 5540 5609 5661 5733 5802 5888 5968 6060 6139 6207 6309 6380 6435 6494 6548 6621 6686 6724 6713 6714 6709 6691 6451